False Pass, AK

2:36 PM HDT on July 27, 2017 (GMT -0900)
False Pass

Weather History for PAKF - November, 2013

Change the Weather History Date:

Thursday, November 14, 2013

  Actual Average (PACD) Record (PACD)
Temperature  
Mean Temperature 46 °F -  
Max Temperature 53 °F 40 °F 56 °F (1979)
Min Temperature 39 °F 30 °F 15 °F (1977)
Degree Days  
Heating Degree Days 20    
Moisture  
Dew Point 43 °F    
Average Humidity 87    
Maximum Humidity 100    
Minimum Humidity 57    
Precipitation  
Precipitation 0.00 in - - ()
Sea Level Pressure  
Sea Level Pressure 30.67 in    
Wind  
Wind Speed 8 mph (East)    
Max Wind Speed 18 mph    
Max Gust Speed 17 mph    
Visibility 9 miles    
Events      
Averages and records for this station are not official NWS values.
T = Trace of Precipitation, MM = Missing Value Source: NWS Daily Summary

Daily Weather History Graph

Daily Weather History Graph

Search for Another Location

Airport or City:

Trip Planner

Search our weather history database for the weather conditions in past years. The results will help you decide how hot, cold, wet, or windy it might be!

Date:

Astronomy

Nov. 14, 2013 Rise Set
Actual Time 8:24 AM HST 4:51 PM HST
Civil Twilight 7:43 AM HST 5:32 PM HST
Nautical Twilight 6:59 AM HST 6:16 PM HST
Astronomical Twilight 6:16 AM HST 6:58 PM HST
Moon 3:41 PM HST (11/14) 5:06 AM HST (11/14)
Length of Visible Light 9h 48m
Length of Day
8h 27m
Waxing Gibbous, 92% of the Moon is Illuminated
Nov 14
Waxing Gibbous
Nov 17
Full
Nov 25
Last Quarter
Dec 2
New
Dec 9
First Quarter

Hourly Weather History & Observations

Time (HST) Temp. Windchill Dew Point Humidity Pressure Visibility Wind Dir Wind Speed Gust Speed Precip Events Conditions
12:01 AM 39.9 °F - 39.0 °F 97% 30.82 in 5.0 mi Calm Calm - N/A   Mostly Cloudy
12:24 AM 42.8 °F 41.1 °F 42.8 °F 100% 30.51 in 4.0 mi Variable 3.5 mph - N/A   Mostly Cloudy
12:32 AM 42.8 °F 40.1 °F 42.8 °F 100% 30.51 in 5.0 mi East 4.6 mph - N/A   Mostly Cloudy
12:59 AM 42.8 °F 37.5 °F 42.8 °F 100% 30.50 in 5.0 mi ESE 9.2 mph - N/A   Mostly Cloudy
1:01 AM 43.0 °F 39.5 °F 42.1 °F 97% 30.79 in 5.0 mi SE 5.8 mph - N/A   Mostly Cloudy
2:01 AM 44.1 °F 38.6 °F 43.0 °F 96% 30.78 in 10.0 mi ENE 10.4 mph - N/A   Overcast
3:01 AM 46.0 °F 40.6 °F 45.0 °F 96% 30.77 in 10.0 mi East 11.5 mph - N/A   Overcast
4:01 AM 46.0 °F 40.2 °F 44.1 °F 93% 30.76 in 10.0 mi East 12.7 mph - N/A   Overcast
5:01 AM 46.0 °F 40.6 °F 43.0 °F 89% 30.74 in 10.0 mi East 11.5 mph - N/A   Overcast
6:01 AM 46.0 °F 42.5 °F 43.0 °F 89% 30.73 in 10.0 mi East 6.9 mph - N/A   Overcast
6:39 AM 46.4 °F 40.1 °F 42.8 °F 87% 30.45 in 10.0 mi East 15.0 mph - N/A   Overcast
7:01 AM 46.0 °F 39.6 °F 44.1 °F 93% 30.74 in 10.0 mi East 15.0 mph - N/A   Overcast
7:58 AM 48.2 °F - 44.6 °F 87% 30.44 in 10.0 mi East 18.4 mph - N/A   Overcast
8:01 AM 48.0 °F - 45.0 °F 89% 30.73 in 10.0 mi East 16.1 mph - N/A   Overcast
9:01 AM 46.0 °F 44.8 °F 44.1 °F 93% 30.75 in 10.0 mi Variable 3.5 mph - N/A   Overcast
10:01 AM 46.9 °F - 45.0 °F 93% 30.75 in 10.0 mi Variable 5.8 mph - N/A   Mostly Cloudy
11:01 AM 48.0 °F - 46.0 °F 93% 30.73 in 10.0 mi Calm Calm - N/A   Clear
12:01 PM 48.9 °F - 46.0 °F 90% 30.71 in 10.0 mi East 11.5 mph - N/A   Clear
1:01 PM 48.9 °F - 46.0 °F 90% 30.69 in 10.0 mi East 9.2 mph - N/A   Clear
2:01 PM 48.0 °F - 44.1 °F 86% 30.69 in 10.0 mi East 13.8 mph - N/A   Clear
3:01 PM 46.9 °F - 44.1 °F 90% 30.66 in 10.0 mi East 11.5 mph - N/A   Clear
4:01 PM 46.0 °F 41.9 °F 44.1 °F 93% 30.66 in 10.0 mi East 8.1 mph - N/A   Clear
5:01 PM 46.0 °F 41.0 °F 43.0 °F 89% 30.66 in 10.0 mi East 10.4 mph - N/A   Clear
6:01 PM 48.9 °F - 42.1 °F 77% 30.64 in 10.0 mi East 9.2 mph - N/A   Clear
7:01 PM 46.9 °F - 42.1 °F 83% 30.63 in 10.0 mi East 11.5 mph 17.3 mph N/A   Clear
8:01 PM 52.0 °F - 39.9 °F 63% 30.62 in 10.0 mi East 12.7 mph - N/A   Partly Cloudy
9:01 PM 51.1 °F - 37.9 °F 61% 30.63 in 10.0 mi East 15.0 mph - N/A   Clear
10:01 PM 48.9 °F - 37.9 °F 66% 30.63 in 10.0 mi Calm Calm - N/A   Clear
11:01 PM 53.1 °F - 37.9 °F 57% 30.62 in 10.0 mi NE 4.6 mph - N/A   Mostly Cloudy